User: anonymous   Login
Location: Powder Track
(41.8531°N, 72.3584°W)
Time: 08:33:44
(UTC+00:00)
Language:

SR - Orbit

View from above orbital plane
View from above orbital plane
View from above satellite
View from above satellite

Ground track
Ground track

The orbit data is extracted from the following two-line orbital elements,

1 00046U 60007B   21204.94181785  .00000140  00000-0  50394-4 0  9995
2 00046  66.6905  41.5716 0211964 193.8951 165.6271 14.49417542197294
Epoch (UTC): 23 July 2021 22:36:13
Eccentricity: 0.0211964
inclination: 66.6905°
perigee height: 577 km
apogee height: 878 km
right ascension of ascending node: 41.5716°
argument of perigee: 193.8951°
revolutions per day: 14.49417542
mean anomaly at epoch: 165.6271°
orbit number at epoch: 19729

The dashed part of the orbit path shows where the satellite is in the earth's shadow,  

DLR